Guatemala, Guatemala

9:33 PM CST on October 18, 2018 (GMT -0600)
La Aurora International

Weather History for MGGT - April, 2018

Change the Weather History Date:

Tuesday, April 17, 2018

  Actual Average Record
Temperature  
Mean Temperature 66 °F -  
Max Temperature 78 °F 77 °F 86 °F (2003)
Min Temperature 55 °F 60 °F 53 °F (2004)
Cooling Degree Days 2    
Growing Degree Days 16 (Base 50)    
Moisture  
Dew Point 52 °F    
Average Humidity 61    
Maximum Humidity 82    
Minimum Humidity 41    
Precipitation  
Precipitation 0.00 in - - ()
Sea Level Pressure  
Sea Level Pressure 30.31 in    
Wind  
Wind Speed 15 mph ()    
Max Wind Speed 94 mph    
Max Gust Speed -    
Visibility 7.6 miles    
Events      
Averages and records for this station are not official NWS values.
T = Trace of Precipitation, MM = Missing Value Source: Averaged Metar Reports

Daily Weather History Graph

Daily Weather History Graph

Search for Another Location

Airport or City:

Astronomy

Apr. 17, 2018 Rise Set
Actual Time 5:47 AM CST 6:16 PM CST
Civil Twilight 5:25 AM CST 6:38 PM CST
Nautical Twilight 4:59 AM CST 7:03 PM CST
Astronomical Twilight 4:34 AM CST 7:29 PM CST
Moon 7:09 AM CST (4/17) 8:03 PM CST (4/17)
Length of Visible Light 13h 12m
Length of Day
12h 29m
Waxing Crescent, 4% of the Moon is Illuminated
Apr 17
Waxing Crescent
Apr 22
First Quarter
Apr 29
Full
May 7
Last Quarter
May 15
New

Hourly Weather History & Observations

Time (CST) Temp. Dew Point Humidity Pressure Visibility Wind Dir Wind Speed Gust Speed Precip Events Conditions
12:00 AM 59.0 °F 51.8 °F 77% 30.39 in 6.2 mi North 11.5 mph - N/A   Mostly Cloudy
1:00 AM 57.2 °F 51.8 °F 82% 30.36 in - North 11.5 mph - N/A   Clear
2:00 AM 57.2 °F 51.8 °F 82% 30.36 in - North 16.1 mph - N/A   Clear
3:00 AM 57.2 °F 50.0 °F 77% 30.33 in - North 13.8 mph - N/A   Clear
4:00 AM 57.2 °F 48.2 °F 72% 30.33 in - North 11.5 mph - N/A   Clear
5:00 AM 57.2 °F 48.2 °F 72% 30.33 in - NNE 13.8 mph - N/A   Clear
6:00 AM 55.4 °F 46.4 °F 72% 30.33 in - NNE 13.8 mph - N/A   Clear
7:00 AM 60.8 °F 50.0 °F 68% 30.36 in - North 16.1 mph - N/A   Clear
8:00 AM 62.6 °F 44.6 °F 52% 30.36 in - North 16.1 mph - N/A   Clear
9:00 AM 68.0 °F 44.6 °F 43% 30.36 in - North 20.7 mph - N/A   Clear
10:00 AM 69.8 °F 48.2 °F 46% 30.33 in - North 13.8 mph - N/A   Clear
11:00 AM 73.4 °F 48.2 °F 41% 30.33 in - NNE 16.1 mph - N/A   Clear
12:00 PM - - %  in 19 mi WNW 94.4 mph - -  
12:00 PM 75.2 °F 51.8 °F 44% 30.30 in - NNE 16.1 mph - N/A   Clear
1:00 PM 78.8 °F 53.6 °F 42% 30.27 in 6.2 mi NNE 13.8 mph - N/A   Partly Cloudy
2:00 PM 78.8 °F 53.6 °F 42% 30.24 in 6.2 mi NNE 11.5 mph - N/A   Partly Cloudy
3:00 PM 78.8 °F 53.6 °F 42% 30.21 in 6.2 mi North 13.8 mph - N/A   Partly Cloudy
4:00 PM 77.0 °F 55.4 °F 47% 30.21 in 6.2 mi North 16.1 mph - N/A   Partly Cloudy
5:00 PM 75.2 °F 55.4 °F 50% 30.21 in 6.2 mi North 18.4 mph - N/A   Partly Cloudy
6:00 PM 71.6 °F 53.6 °F 53% 30.24 in 6.2 mi NNE 16.1 mph - N/A   Partly Cloudy
7:00 PM 68.0 °F 53.6 °F 60% 30.24 in - NNE 16.1 mph - N/A   Clear
8:00 PM 64.4 °F 55.4 °F 73% 30.30 in - North 13.8 mph - N/A   Clear
9:00 PM 64.4 °F 55.4 °F 73% 30.30 in - North 13.8 mph - N/A   Clear
10:00 PM 60.8 °F 55.4 °F 82% 30.33 in 6.2 mi North 11.5 mph - N/A   Scattered Clouds
11:00 PM 60.8 °F 55.4 °F 82% 30.33 in - North 11.5 mph - N/A   Clear